Everett, WA

5:30 AM PST on December 15, 2019 (GMT -0800)
Snohomish County

Weather History for KPAE - July, 2019

Change the Weather History Date:

Thursday, July 25, 2019

  Actual Average Record
Temperature  
Mean Temperature 66 °F -  
Max Temperature 79 °F 73 °F 86 °F (2018)
Min Temperature 55 °F 55 °F 45 °F (1948)
Cooling Degree Days 2    
Growing Degree Days 16 (Base 50)    
Moisture  
Dew Point 49 °F    
Average Humidity 59    
Maximum Humidity 90    
Minimum Humidity 26    
Precipitation  
Precipitation 0.00 in - - ()
Sea Level Pressure  
Sea Level Pressure 30.14 in    
Wind  
Wind Speed 6 mph (North)    
Max Wind Speed 13 mph    
Max Gust Speed 18 mph    
Visibility 10 miles    
Events      
Averages and records for this station are not official NWS values.
T = Trace of Precipitation, MM = Missing Value Source: NWS Daily Summary

Daily Weather History Graph

Daily Weather History Graph

Search for Another Location

Airport or City:

Astronomy

Jul. 25, 2019 Rise Set
Actual Time 5:36 AM PDT 8:53 PM PDT
Civil Twilight 4:59 AM PDT 9:31 PM PDT
Nautical Twilight 4:09 AM PDT 10:20 PM PDT
Astronomical Twilight 3:06 AM PDT 11:22 PM PDT
Moon 12:38 AM PDT (7/25) 2:29 PM PDT (7/25)
Length of Visible Light 16h 32m
Length of Day
15h 17m
Last Quarter, 43% of the Moon is Illuminated
Jul 25
Last Quarter
Jul 31
New
Aug 7
First Quarter
Aug 15
Full
Aug 23
Last Quarter

Hourly Weather History & Observations

Time (PDT) Temp. Dew Point Humidity Pressure Visibility Wind Dir Wind Speed Gust Speed Precip Events Conditions
12:53 AM 57.9 °F 52.0 °F 81% 30.20 in 10.0 mi North 6.9 mph - N/A   Clear
1:53 AM 57.0 °F 53.1 °F 87% 30.19 in 10.0 mi NNW 3.5 mph - N/A   Clear
2:53 AM 55.9 °F 52.0 °F 87% 30.19 in 10.0 mi Calm Calm - N/A   Clear
3:53 AM 55.9 °F 52.0 °F 87% 30.19 in 10.0 mi Calm Calm - N/A   Clear
4:53 AM 55.0 °F 52.0 °F 89% 30.19 in 10.0 mi North 3.5 mph - N/A   Clear
5:53 AM 55.9 °F 53.1 °F 90% 30.18 in 10.0 mi NNE 4.6 mph - N/A   Clear
6:53 AM 57.0 °F 52.0 °F 83% 30.18 in 10.0 mi NNE 4.6 mph - N/A   Clear
7:53 AM 60.1 °F 48.9 °F 67% 30.18 in 10.0 mi NNE 4.6 mph - N/A   Clear
8:53 AM 63.0 °F 50.0 °F 63% 30.19 in 10.0 mi North 4.6 mph - N/A   Clear
9:53 AM 66.9 °F 51.1 °F 57% 30.18 in 10.0 mi Variable 3.5 mph - N/A   Clear
10:53 AM 68.0 °F 50.0 °F 52% 30.18 in 10.0 mi North 6.9 mph - N/A   Clear
11:53 AM 73.9 °F 48.0 °F 40% 30.17 in 10.0 mi NNW 6.9 mph - N/A   Clear
12:53 PM 73.9 °F 45.0 °F 35% 30.16 in 10.0 mi Variable 6.9 mph - N/A   Clear
1:53 PM 77.0 °F 45.0 °F 32% 30.15 in 10.0 mi Variable 6.9 mph - N/A   Clear
2:53 PM 77.0 °F 46.0 °F 33% 30.14 in 10.0 mi North 8.1 mph - N/A   Clear
3:53 PM 77.0 °F 46.9 °F 34% 30.12 in 10.0 mi North 12.7 mph - N/A   Clear
4:53 PM 78.1 °F 44.1 °F 30% 30.10 in 10.0 mi North 9.2 mph - N/A   Clear
5:53 PM 77.0 °F 41.0 °F 28% 30.09 in 10.0 mi North 9.2 mph - N/A   Clear
6:53 PM 77.0 °F 39.9 °F 26% 30.08 in 10.0 mi NNW 6.9 mph - N/A   Clear
7:53 PM 72.0 °F 45.0 °F 38% 30.07 in 10.0 mi North 6.9 mph - N/A   Clear
8:53 PM 66.9 °F 46.0 °F 47% 30.06 in 10.0 mi North 8.1 mph - N/A   Clear
9:53 PM 63.0 °F 55.9 °F 78% 30.07 in 10.0 mi North 5.8 mph - N/A   Clear
10:53 PM 62.1 °F 55.9 °F 80% 30.06 in 10.0 mi North 10.4 mph 18.4 mph N/A   Clear
11:53 PM 62.1 °F 57.0 °F 84% 30.05 in 10.0 mi North 9.2 mph - N/A   Clear